Hourly Data Report for October 02, 2013

All times are specified in Local Standard Time (LST). Add 1 hour to adjust for Daylight Saving Time where and when it is observed.

IQALUIT CLIMATE
NUNAVUT

63°44'50.000" N
68°32'40.000" W
33.50 m
2402592
71321
XFB

Download Data

Hourly Data (October 2013)
Hourly Data Report for October 2, 2013
Temp Definition
°C
Dew Point Temp Definition
°C
Rel Hum Definition
%
Wind Dir Definition
10's deg

Wind Spd Definition
km/h
Visibility Definition
km
Stn Press Definition
kPa
Hmdx Definition


Wind Chill Definition


Weather Definition


TIME
00:00 1.5 -0.6 86 16 4   99.98     LegendNANA
01:00 1.0 -0.4 90   0   99.96     LegendNANA
02:00 0.9 -0.1 93 13 4   99.95     LegendNANA
03:00 0.7 -0.1 94 12 7   99.97     LegendNANA
04:00 1.0 0.1 94 15 7   99.93     LegendNANA
05:00 1.2 1.0 99 14 13   99.93     LegendNANA
06:00 1.2 1.2 100 16 15   99.93     LegendNANA
07:00 1.3 1.3 100 13 11   99.93     LegendNANA
08:00 1.4 1.4 100 14 11   99.94     LegendNANA
09:00 1.5 1.5 100 14 9   99.95     LegendNANA
10:00 1.7 1.7 100 14 7   99.96     LegendNANA
11:00 1.7 1.7 100 15 9   99.96     LegendNANA
12:00 1.6 1.6 100 15 9   99.95     LegendNANA
13:00 1.5 1.5 100 16 11   99.95     LegendNANA
14:00 1.7 1.7 100 16 15   99.95     LegendNANA
15:00 1.6 1.6 100 15 15   99.96     LegendNANA
16:00 1.7 1.7 100 13 11   99.97     LegendNANA
17:00 2.0 2.0 100 12 11   99.99     LegendNANA
18:00 2.2 2.2 100 12 13   100.02     LegendNANA
19:00 2.1 2.1 100 12 11   100.03     LegendNANA
20:00 2.1 2.0 99 12 11   100.06     LegendNANA
21:00 2.1 1.8 98 11 15   100.05     LegendNANA
22:00 2.2 1.8 97 12 13   100.05     LegendNANA
23:00 2.0 1.7 98 10 9   100.05     LegendNANA

Notes on Data Quality.

Legend

  • E = Estimated
  • M = Missing
  • NA = Not Available
  • ‡ = Partner data that is not subject to review by the National Climate Archives
Date modified: